sat.trackr.live / text

‹ back to catalog

ASIASAT 9

NORAD 42942 · 2017-057A

PAYLOAD ACTIVE UNKNOWN

§ Identity

Operator
Country
AC
Launch date
2017-09-28
Launch site
TYMSC
Launch vehicle
Mass (kg)
RCS (m²)

Purposes: comms

External: N2YO · Heavens-Above · Gunter

§ Orbital elements

Epoch: 2026-05-25T07:44:42.708192Z

Period
1,436.11 min
Inclination
0.0094°
Eccentricity
0.0002568
Mean motion
1.00271167 rev/d
Perigee alt
35,775.9 km
Apogee alt
35,797.6 km
Semi-major
42,164.9 km
B*
0.0000e+0
RAAN
65.7687°
Arg perigee
351.0646°
Mean anomaly
64.3573°
Rev number
3,163

§ Raw data

ASIASAT 91 42942U 17057A   26145.32271653 -.00000361  00000+0  00000+0 0  99972 42942   0.0094  65.7687 0002568 351.0646  64.3573  1.00271167 31637

JSON: /api/v1/satellites/42942 · /tle

For live sub-satellite position, see the globe view (requires WebGL).

§ Visibility from observer

Set your observer location to see the next 7 days of passes ≥ 10°. The values pass through the URL so the page stays shareable.

No JS? Fill the form by hand. The geolocation button needs JavaScript.